Regional Weather Roundup
Issued by NWS Albany, NY

Home | Current Version | Previous Version | Graphics & Text | Print | Product List | Glossary Off
Versions: 1 2 3 4 5 6 7 8 9 10 11 12 13 14 15 16 17 18 19 20 21 22 23 24 25 26 27 28 29 30 31 32 33 34 35 36 37 38 39 40 41 42 43 44 45 46 47 48 49 50

000
ASUS41 KALY 262310
RWRALY

NEW YORK STATE HOURLY WEATHER ROUNDUP
NATIONAL WEATHER SERVICE ALBANY NY
700 PM EDT TUE MAY 26 2015

NOTE: "FAIR" INDICATES FEW OR NO CLOUDS BELOW 12,000 FEET WITH NO
SIGNIFICANT WEATHER AND/OR NO OBSTRUCTIONS TO VISIBILITY.

NYZ032-033-038>043-046>054-057>066-NYZ062>081-270000-
EAST


CITY           SKY/WX    TMP DP  RH WIND       PRES   REMARKS
ALBANY         PTSUNNY   83  62  49 S3        30.08F
GLENS FALLS    PTSUNNY   82  62  50 SW9       30.05F
POUGHKEEPSIE   CLOUDY    83  64  52 S5        30.10S
NEWBURGH       LGT RAIN  79  72  78 CALM      30.14S
MONTGOMERY     LGT RAIN  76  73  91 N5        30.12S
WHITE PLAINS   PTSUNNY   75  62  64 SE9       30.14F
ISLIP          PTSUNNY   69  58  67 SW17G26   30.17F
NEW YORK CITY  PTSUNNY   78  60  53 S8G18     30.12F
CENTRAL PARK   PTSUNNY   80  61  52 VRB3      30.15F
$$

NYZ005>009-017-018-044>046-055-056-270000-
CENTRAL


CITY           SKY/WX    TMP DP  RH WIND       PRES   REMARKS
FULTON         PTSUNNY   82  64  54 VRB3      30.03F
SYRACUSE       PTSUNNY   82  64  54 S13       30.03F
ROME           PTSUNNY   82  63  52 SW7       30.07F
ELMIRA         PTSUNNY   79  66  64 S7        30.07F
BINGHAMTON     PTSUNNY   73  65  75 S3        30.13F
MONTICELLO     CLOUDY    68  66  94 NE6       30.19F
$$

NYZ026>034-041>043-270000-
NORTH


CITY           SKY/WX    TMP DP  RH WIND       PRES   REMARKS
WATERTOWN      MOSUNNY   78  65  63 W5        30.02F
FORT DRUM      NOT AVBL
MASSENA        MOSUNNY   81  61  50 SW21G26   30.00F
PLATTSBURGH    MOSUNNY   85  55  35 SW6       30.00S
$$

NYZ001>004-010>016-019>021-270000-
WEST


CITY           SKY/WX    TMP DP  RH WIND       PRES   REMARKS
NIAGARA FALLS  PTSUNNY   78  63  59 S12       29.99F
BUFFALO        PTSUNNY   78  63  59 SW3       30.01F
DUNKIRK        MOSUNNY   81  62  52 S15G23    30.01F
JAMESTOWN      MOSUNNY   73  61  64 S15       30.08F
WELLSVILLE     MOSUNNY   74  59  59 S8G17     30.13F
ROCHESTER      PTSUNNY   75  68  78 CALM      30.02F
PENN YAN       MOSUNNY   80  64  58 S8        30.06F
$$

             KEY
       WCI = WIND CHILL INDEX
       VSB = VISIBILITY
       HX  = HEAT INDEX
$$



USA.gov is the U.S. government's official web portal to all federal, state and local government web resources and services.